This is the latest recevied weather packets stored in our database for station/object WX1NWA. If no packets are shown the sender has not sent any weather packets the latest 10 day(s).
| Time | Temp. | Humidity | Pressure | Rain* | Wind** | Luminosity | Snow |
|---|---|---|---|---|---|---|---|
| 1777125418 | 13.33° C | 99% | 1014.3 hPa | 0 mm | - | 230 W/m² | - |
| 1777125113 | 13.33° C | 99% | 1014.1 hPa | 0 mm | - | 200 W/m² | - |
| 1777124809 | 13.33° C | 99% | 1014.4 hPa | 0 mm | - | 284 W/m² | - |
| 1777124504 | 13.33° C | 99% | 1014 hPa | 0 mm | - | 273 W/m² | - |
| 1777124201 | 12.78° C | 99% | 1014.1 hPa | 0 mm | - | 242 W/m² | - |
| 1777123898 | 13.33° C | 99% | 1014 hPa | 0 mm | - | 185 W/m² | - |
| 1777123595 | 13.33° C | 99% | 1014.1 hPa | 0 mm | - | 157 W/m² | - |
| 1777123291 | 13.33° C | 99% | 1013.9 hPa | 0 mm | - | 216 W/m² | - |
| 1777122987 | 13.33° C | 99% | 1014.1 hPa | 0 mm | - | 182 W/m² | - |
| 1777122683 | 12.78° C | 99% | 1014.3 hPa | 0 mm | - | 155 W/m² | - |
| 1777122378 | 13.33° C | 99% | 1013.9 hPa | 0 mm | - | 127 W/m² | - |
| 1777122076 | 13.33° C | 99% | 1014 hPa | 0 mm | - | 98 W/m² | - |
| 1777121771 | 13.33° C | 99% | 1013.8 hPa | 0 mm | - | 106 W/m² | - |
| 1777121469 | 13.33° C | 99% | 1014 hPa | 0 mm | - | 77 W/m² | - |
| 1777121168 | 13.89° C | 99% | 1014 hPa | 0 mm | - | 82 W/m² | - |
| 1777120867 | 13.89° C | 99% | 1013.9 hPa | 0 mm | - | 58 W/m² | - |
| 1777120562 | 13.89° C | 99% | 1013.6 hPa | 0 mm | - | 50 W/m² | - |
| 1777120258 | 13.89° C | 99% | 1013.7 hPa | 0 mm | - | 46 W/m² | - |
| 1777119953 | 13.33° C | 99% | 1013.5 hPa | 0 mm | - | 42 W/m² | - |
| 1777119651 | 13.33° C | 99% | 1013.6 hPa | 0 mm | - | 40 W/m² | - |
| 1777119346 | 13.33° C | 99% | 1013.6 hPa | 0 mm | - | 36 W/m² | - |
| 1777119046 | 12.78° C | 99% | 1013.8 hPa | 0 mm | - | 33 W/m² | - |
| 1777118742 | 12.78° C | 99% | 1013.8 hPa | 0 mm | - | 32 W/m² | - |
| 1777118438 | 12.78° C | 99% | 1013.7 hPa | 0 mm | - | 25 W/m² | - |
| 1777118134 | 12.78° C | 99% | 1013.4 hPa | 0 mm | - | 20 W/m² | - |
* Rain latest hour (hover to see other rain measurements)
** Current wind speed in m/s (hover to see current wind gust speed)